Location: Brede
(50.9167°N, 0.6000°E)
Time: 01:55:24
(UTC+00:00)

NPP - Pass Details

Date: 08 August 2020
Orbit: 826 x 827 km, 98.7° (Epoch: 27 September)

Event Time Altitude Azimuth Distance (km) Brightness Sun altitude
Rises 01:49:09 0° 16° (NNE) 3,381 8.4 -19.1°
Reaches altitude 10° 01:51:31 10° 18° (NNE) 2,443 7.3 -19.0°
Maximum altitude 01:56:57 77° 104° (ESE) 853 3.7 -18.6°
Enters shadow 01:59:42 30° 186° (S) 1,447 4.4 -18.4°
